Previsão horária em Barranca de Upía

Hoje, 25 Outubro, Domingo

Tempo Temperatura Precipitação Vento Pressão Humidade
00:00 +25°C° 0 mm 1 m/s 738 mmHg 91%
01:00 +24°C° 0 mm 1 m/s 738 mmHg 91%
02:00 +25°C° 0 mm 1 m/s 738 mmHg 90%
03:00 +25°C° 0 mm 1 m/s 738 mmHg 89%
04:00 +23°C° 0 mm 0 m/s 737 mmHg 89%
05:00 +23°C° 0 mm 0 m/s 738 mmHg 87%
06:00 +24°C° 0 mm 0 m/s 739 mmHg 86%
07:00 +24°C° 0 mm 0 m/s 739 mmHg 85%
08:00 +28°C° 0 mm 1 m/s 740 mmHg 79%
09:00 +30°C° 0 mm 1 m/s 740 mmHg 73%
10:00 +32°C° 0 mm 1 m/s 740 mmHg 67%
11:00 +32°C° 0.6 mm 1 m/s 739 mmHg 67%
12:00 +32°C° 0.6 mm 1 m/s 738 mmHg 67%
13:00 +33°C° 0.6 mm 1 m/s 737 mmHg 68%
14:00 +32°C° 1.9 mm 1 m/s 737 mmHg 72%
15:00 +31°C° 1.9 mm 1 m/s 737 mmHg 76%
16:00 +31°C° 1.9 mm 1 m/s 736 mmHg 81%
17:00 +29°C° 1.4 mm 1 m/s 737 mmHg 84%
18:00 +28°C° 1.4 mm 1 m/s 737 mmHg 87%
19:00 +26°C° 1.4 mm 1 m/s 738 mmHg 91%
20:00 +26°C° 0 mm 1 m/s 738 mmHg 91%
21:00 +26°C° 0 mm 1 m/s 738 mmHg 91%
22:00 +25°C° 0 mm 1 m/s 738 mmHg 91%
23:00 +25°C° 0 mm 1 m/s 738 mmHg 91%

Amanhã, 26 Outubro, Segunda-feira

Tempo Temperatura Precipitação Vento Pressão Humidade
00:00 +25°C° 0 mm 1 m/s 738 mmHg 91%
01:00 +25°C° 0 mm 1 m/s 738 mmHg 90%
02:00 +24°C° 0 mm 1 m/s 737 mmHg 90%
03:00 +24°C° 0 mm 1 m/s 737 mmHg 90%
04:00 +24°C° 0 mm 1 m/s 737 mmHg 89%
05:00 +25°C° 0 mm 1 m/s 738 mmHg 88%
06:00 +26°C° 0 mm 1 m/s 739 mmHg 86%
07:00 +24°C° 0 mm 0 m/s 739 mmHg 84%
08:00 +28°C° 0 mm 1 m/s 739 mmHg 78%
09:00 +30°C° 0 mm 1 m/s 740 mmHg 71%
10:00 +32°C° 0 mm 2 m/s 740 mmHg 65%
11:00 +32°C° 0.1 mm 2 m/s 739 mmHg 63%
12:00 +34°C° 0.1 mm 2 m/s 738 mmHg 62%
13:00 +35°C° 0.1 mm 2 m/s 737 mmHg 60%
14:00 +34°C° 0.1 mm 2 m/s 737 mmHg 62%
15:00 +33°C° 0.1 mm 1 m/s 736 mmHg 65%
16:00 +33°C° 0.1 mm 1 m/s 736 mmHg 67%
17:00 +31°C° 0.1 mm 1 m/s 737 mmHg 73%
18:00 +29°C° 0.1 mm 1 m/s 737 mmHg 78%
19:00 +28°C° 0.1 mm 1 m/s 738 mmHg 83%
20:00 +27°C° 0.1 mm 1 m/s 738 mmHg 85%
21:00 +27°C° 0.1 mm 1 m/s 738 mmHg 86%
22:00 +26°C° 0.1 mm 1 m/s 738 mmHg 88%
23:00 +26°C° 0 mm 1 m/s 738 mmHg 88%

Depois de amanhã, 27 Outubro, Terça-feira

Tempo Temperatura Precipitação Vento Pressão Humidade
00:00 +26°C° 0 mm 1 m/s 737 mmHg 87%
01:00 +25°C° 0 mm 1 m/s 737 mmHg 87%
02:00 +25°C° 0 mm 1 m/s 737 mmHg 86%
03:00 +25°C° 0 mm 1 m/s 737 mmHg 85%
04:00 +25°C° 0 mm 1 m/s 737 mmHg 84%
05:00 +25°C° 0.1 mm 1 m/s 737 mmHg 84%
06:00 +26°C° 0.1 mm 1 m/s 738 mmHg 84%
07:00 +24°C° 0.1 mm 0 m/s 739 mmHg 83%
08:00 +28°C° 0 mm 1 m/s 739 mmHg 78%
09:00 +30°C° 0 mm 2 m/s 739 mmHg 72%
10:00 +31°C° 0 mm 2 m/s 739 mmHg 66%
11:00 +32°C° 0.2 mm 2 m/s 738 mmHg 66%
12:00 +32°C° 0.2 mm 2 m/s 737 mmHg 66%
13:00 +34°C° 0.2 mm 2 m/s 736 mmHg 66%
14:00 +32°C° 1.8 mm 2 m/s 736 mmHg 72%
15:00 +31°C° 1.8 mm 1 m/s 735 mmHg 77%
16:00 +30°C° 1.8 mm 1 m/s 735 mmHg 82%
17:00 +29°C° 1.1 mm 1 m/s 735 mmHg 85%
18:00 +28°C° 1.1 mm 1 m/s 736 mmHg 88%
19:00 +27°C° 1.1 mm 1 m/s 736 mmHg 90%
20:00 +26°C° 0.4 mm 1 m/s 737 mmHg 91%
21:00 +26°C° 0.4 mm 1 m/s 737 mmHg 91%
22:00 +26°C° 0.4 mm 1 m/s 737 mmHg 92%
23:00 +25°C° 0 mm 1 m/s 737 mmHg 92%

28 Outubro, Quarta-feira

Tempo Temperatura Precipitação Vento Pressão Humidade
00:00 +25°C° 0 mm 1 m/s 736 mmHg 92%
01:00 +25°C° 0 mm 1 m/s 736 mmHg 92%
02:00 +25°C° 0 mm 1 m/s 736 mmHg 92%
03:00 +24°C° 0 mm 1 m/s 736 mmHg 92%
04:00 +24°C° 0 mm 1 m/s 736 mmHg 92%
05:00 +25°C° 0 mm 1 m/s 737 mmHg 90%
06:00 +25°C° 0 mm 1 m/s 737 mmHg 88%
07:00 +26°C° 0 mm 1 m/s 738 mmHg 86%
08:00 +28°C° 0 mm 1 m/s 738 mmHg 79%
09:00 +30°C° 0 mm 1 m/s 738 mmHg 71%
10:00 +32°C° 0 mm 2 m/s 738 mmHg 64%
11:00 +32°C° 0.2 mm 2 m/s 737 mmHg 63%
12:00 +32°C° 0.2 mm 2 m/s 736 mmHg 62%
13:00 +34°C° 0.2 mm 3 m/s 735 mmHg 62%
14:00 +32°C° 0.4 mm 2 m/s 735 mmHg 66%
15:00 +32°C° 0.4 mm 1 m/s 735 mmHg 69%
16:00 +32°C° 0.4 mm 1 m/s 734 mmHg 73%
17:00 +30°C° 0.2 mm 1 m/s 735 mmHg 77%
18:00 +29°C° 0.2 mm 1 m/s 736 mmHg 81%
19:00 +27°C° 0.2 mm 1 m/s 736 mmHg 85%
20:00 +27°C° 0.4 mm 1 m/s 736 mmHg 87%
21:00 +26°C° 0.4 mm 1 m/s 737 mmHg 89%
22:00 +26°C° 0.4 mm 1 m/s 737 mmHg 90%
23:00 +25°C° 0.2 mm 1 m/s 737 mmHg 91%

29 Outubro, Quinta-feira

Tempo Temperatura Precipitação Vento Pressão Humidade
00:00 +25°C° 0.2 mm 1 m/s 736 mmHg 91%
01:00 +23°C° 0.2 mm 0 m/s 736 mmHg 92%
02:00 +23°C° 0 mm 0 m/s 736 mmHg 91%
03:00 +23°C° 0 mm 0 m/s 736 mmHg 91%
04:00 +23°C° 0 mm 0 m/s 737 mmHg 90%
05:00 +25°C° 0 mm 1 m/s 737 mmHg 89%
06:00 +25°C° 0 mm 1 m/s 738 mmHg 87%
07:00 +26°C° 0 mm 1 m/s 738 mmHg 86%
08:00 +28°C° 0 mm 2 m/s 738 mmHg 79%
09:00 +30°C° 0 mm 3 m/s 738 mmHg 72%
10:00 +32°C° 0 mm 4 m/s 738 mmHg 65%
11:00 +33°C° 0 mm 3 m/s 737 mmHg 62%
12:00 +34°C° 0 mm 3 m/s 737 mmHg 60%
13:00 +35°C° 0 mm 2 m/s 736 mmHg 58%
14:00 +34°C° 1.1 mm 2 m/s 735 mmHg 65%
15:00 +32°C° 1.1 mm 2 m/s 735 mmHg 72%
16:00 +31°C° 1.1 mm 1 m/s 735 mmHg 79%
17:00 +30°C° 1.2 mm 1 m/s 735 mmHg 82%
18:00 +28°C° 1.2 mm 1 m/s 736 mmHg 86%
19:00 +27°C° 1.2 mm 1 m/s 736 mmHg 89%
20:00 +26°C° 0.8 mm 1 m/s 737 mmHg 90%
21:00 +26°C° 0.8 mm 1 m/s 737 mmHg 91%
22:00 +26°C° 0.8 mm 1 m/s 737 mmHg 92%
23:00 +25°C° 0 mm 1 m/s 737 mmHg 91%

30 Outubro, Sexta-feira

Tempo Temperatura Precipitação Vento Pressão Humidade
00:00 +25°C° 0 mm 1 m/s 737 mmHg 91%
01:00 +25°C° 0 mm 1 m/s 737 mmHg 91%
02:00 +24°C° 0 mm 1 m/s 737 mmHg 90%
03:00 +24°C° 0 mm 1 m/s 737 mmHg 90%
04:00 +24°C° 0 mm 1 m/s 737 mmHg 90%
05:00 +23°C° 0 mm 0 m/s 738 mmHg 88%
06:00 +23°C° 0 mm 0 m/s 738 mmHg 86%
07:00 +24°C° 0 mm 0 m/s 739 mmHg 85%
08:00 +28°C° 0 mm 1 m/s 739 mmHg 78%
09:00 +30°C° 0 mm 1 m/s 739 mmHg 70%
10:00 +32°C° 0 mm 1 m/s 739 mmHg 63%
11:00 +33°C° 0 mm 1 m/s 738 mmHg 61%
12:00 +34°C° 0 mm 1 m/s 737 mmHg 59%
13:00 +35°C° 0 mm 2 m/s 736 mmHg 57%
14:00 +34°C° 0.2 mm 1 m/s 736 mmHg 61%
15:00 +33°C° 0.2 mm 1 m/s 736 mmHg 64%
16:00 +33°C° 0.2 mm 1 m/s 735 mmHg 68%
17:00 +31°C° 0.8 mm 1 m/s 736 mmHg 74%
18:00 +29°C° 0.8 mm 1 m/s 737 mmHg 80%
19:00 +27°C° 0.8 mm 1 m/s 737 mmHg 86%
20:00 +27°C° 0.6 mm 1 m/s 738 mmHg 88%
21:00 +26°C° 0.6 mm 1 m/s 738 mmHg 90%
22:00 +26°C° 0.6 mm 1 m/s 738 mmHg 92%
23:00 +26°C° 0.1 mm 1 m/s 738 mmHg 92%
Mostrar mais